When you browse on this site, cookies collect data to enhance your experience and personalize the content and advertising you see.
Visit our Privacy Policy to learn more. By continuing to use the site, you agree to this use of cookies and data.
  • In Spain
  • List of Countries
  • For 7 days
  • Water Temperature
  • Satellite Maps
  • Weather Map
  • Weather Widgets
  • user-avatar
    Login

    Hourly Weather Tibissa

    Today, 23 January, Wednesday

    Time Temperature Precipitation Wind Pressure Humidity
    00:00 +3°C° 0 mm 1 mps 677 mmHg 81%
    01:00 +3°C° 0 mm 1 mps 677 mmHg 81%
    02:00 +3°C° 0 mm 1 mps 676 mmHg 80%
    03:00 +2°C° 0 mm 1 mps 676 mmHg 79%
    04:00 +2°C° 0 mm 1 mps 675 mmHg 78%
    05:00 +1°C° 0 mm 2 mps 675 mmHg 78%
    06:00 +1°C° 0 mm 2 mps 675 mmHg 77%
    07:00 +1°C° 0 mm 2 mps 674 mmHg 76%
    08:00 +2°C° 0 mm 2 mps 675 mmHg 73%
    09:00 +2°C° 0 mm 3 mps 675 mmHg 70%
    10:00 +3°C° 0 mm 3 mps 675 mmHg 67%
    11:00 +3°C° 0 mm 4 mps 674 mmHg 65%
    12:00 +3°C° 0 mm 6 mps 674 mmHg 63%
    13:00 +4°C° 0 mm 7 mps 674 mmHg 61%
    14:00 +4°C° 0.1 mm 8 mps 674 mmHg 60%
    15:00 +3°C° 0.1 mm 9 mps 673 mmHg 60%
    16:00 +3°C° 0.1 mm 9 mps 673 mmHg 60%
    17:00 +4°C° 0.1 mm 8 mps 672 mmHg 63%
    18:00 +3°C° 0.1 mm 7 mps 672 mmHg 65%
    19:00 +3°C° 0.1 mm 6 mps 671 mmHg 68%
    20:00 +3°C° 0.3 mm 7 mps 671 mmHg 73%
    21:00 +2°C° 0.3 mm 8 mps 671 mmHg 77%
    22:00 +2°C° 0.3 mm 9 mps 670 mmHg 81%
    23:00 +2°C° 0 mm 9 mps 670 mmHg 81%

    Tomorrow, 24 January, Thursday

    Time Temperature Precipitation Wind Pressure Humidity
    00:00 +1°C° 0 mm 9 mps 669 mmHg 80%
    01:00 +1°C° 0 mm 8 mps 668 mmHg 80%
    02:00 +1°C° 0.1 mm 9 mps 668 mmHg 82%
    03:00 +1°C° 0.1 mm 10 mps 668 mmHg 83%
    04:00 +2°C° 0.1 mm 12 mps 668 mmHg 85%
    05:00 -1°C° 0.4 mm 11 mps 668 mmHg 86%
    06:00 -2°C° 0.4 mm 11 mps 668 mmHg 87%
    07:00 -3°C° 0.4 mm 11 mps 668 mmHg 87%
    08:00 -3°C° 0.6 mm 10 mps 668 mmHg 87%
    09:00 -3°C° 0.6 mm 9 mps 668 mmHg 88%
    10:00 -3°C° 0.6 mm 9 mps 669 mmHg 88%
    11:00 -2°C° 0.4 mm 10 mps 668 mmHg 84%
    12:00 -2°C° 0.4 mm 12 mps 668 mmHg 80%
    13:00 -2°C° 0.4 mm 13 mps 668 mmHg 77%
    14:00 -2°C° 0.1 mm 14 mps 668 mmHg 75%
    15:00 -3°C° 0.1 mm 15 mps 668 mmHg 73%
    16:00 -3°C° 0.1 mm 16 mps 668 mmHg 71%
    17:00 -3°C° 0.1 mm 16 mps 668 mmHg 75%
    18:00 -4°C° 0.1 mm 16 mps 668 mmHg 78%
    19:00 -4°C° 0.1 mm 17 mps 669 mmHg 82%
    20:00 -4°C° 0.1 mm 17 mps 669 mmHg 82%
    21:00 -4°C° 0.1 mm 17 mps 670 mmHg 83%
    22:00 -4°C° 0.1 mm 17 mps 670 mmHg 83%
    23:00 -4°C° 0.1 mm 16 mps 671 mmHg 84%

    Day after tomorrow, 25 January, Friday

    Time Temperature Precipitation Wind Pressure Humidity
    00:00 -4°C° 0.1 mm 16 mps 671 mmHg 84%
    01:00 -4°C° 0.1 mm 15 mps 671 mmHg 85%
    02:00 -4°C° 0.1 mm 15 mps 672 mmHg 85%
    03:00 -4°C° 0.1 mm 15 mps 672 mmHg 85%
    04:00 -4°C° 0.1 mm 14 mps 672 mmHg 85%
    05:00 -4°C° 0 mm 13 mps 672 mmHg 86%
    06:00 -5°C° 0 mm 13 mps 673 mmHg 86%
    07:00 -5°C° 0 mm 12 mps 673 mmHg 86%
    08:00 -5°C° 0 mm 12 mps 673 mmHg 84%
    09:00 -4°C° 0 mm 13 mps 674 mmHg 82%
    10:00 -4°C° 0 mm 13 mps 675 mmHg 79%
    11:00 -2°C° 0.1 mm 13 mps 675 mmHg 77%
    12:00 -2°C° 0.1 mm 13 mps 675 mmHg 75%
    13:00 -2°C° 0.1 mm 14 mps 675 mmHg 74%
    14:00 -1°C° 0.2 mm 13 mps 675 mmHg 76%
    15:00 -1°C° 0.2 mm 12 mps 675 mmHg 78%
    16:00 -1°C° 0.2 mm 11 mps 675 mmHg 80%
    17:00 -1°C° 0.2 mm 9 mps 675 mmHg 81%
    18:00 -1°C° 0.2 mm 7 mps 674 mmHg 82%
    19:00 -1°C° 0.2 mm 5 mps 674 mmHg 84%
    20:00 -2°C° 0.4 mm 8 mps 674 mmHg 85%
    21:00 -3°C° 0.4 mm 11 mps 675 mmHg 86%
    22:00 -2°C° 0.4 mm 13 mps 675 mmHg 87%
    23:00 -4°C° 0.1 mm 13 mps 675 mmHg 86%

    26 January, Saturday

    Time Temperature Precipitation Wind Pressure Humidity
    00:00 -4°C° 0.1 mm 13 mps 675 mmHg 86%
    01:00 -5°C° 0.1 mm 13 mps 675 mmHg 85%
    02:00 -5°C° 0.1 mm 12 mps 675 mmHg 87%
    03:00 -3°C° 0.1 mm 12 mps 675 mmHg 89%
    04:00 -3°C° 0.1 mm 11 mps 675 mmHg 91%
    05:00 -3°C° 0.5 mm 10 mps 675 mmHg 92%
    06:00 -3°C° 0.5 mm 9 mps 676 mmHg 93%
    07:00 -2°C° 0.5 mm 8 mps 676 mmHg 95%
    08:00 -3°C° 0.7 mm 9 mps 677 mmHg 93%
    09:00 -3°C° 0.7 mm 10 mps 677 mmHg 92%
    10:00 -3°C° 0.7 mm 11 mps 678 mmHg 90%
    11:00 -3°C° 0.1 mm 11 mps 678 mmHg 89%
    12:00 -3°C° 0.1 mm 11 mps 678 mmHg 88%
    13:00 -2°C° 0.1 mm 11 mps 678 mmHg 87%
    14:00 -2°C° 0.1 mm 10 mps 678 mmHg 88%
    15:00 -1°C° 0.1 mm 9 mps 678 mmHg 88%
    16:00 -1°C° 0.1 mm 8 mps 678 mmHg 89%
    17:00 -1°C° 0.1 mm 9 mps 679 mmHg 90%
    18:00 -1°C° 0.1 mm 9 mps 679 mmHg 91%
    19:00 -3°C° 0.1 mm 9 mps 680 mmHg 93%
    20:00 -3°C° 0 mm 9 mps 680 mmHg 93%
    21:00 -3°C° 0 mm 10 mps 680 mmHg 93%
    22:00 -3°C° 0 mm 10 mps 681 mmHg 94%
    23:00 -3°C° 0.1 mm 10 mps 681 mmHg 93%

    27 January, Sunday

    Time Temperature Precipitation Wind Pressure Humidity
    00:00 -3°C° 0.1 mm 10 mps 681 mmHg 92%
    01:00 -3°C° 0.1 mm 9 mps 681 mmHg 92%
    02:00 -3°C° 0.1 mm 9 mps 681 mmHg 92%
    03:00 -2°C° 0.1 mm 8 mps 681 mmHg 91%
    04:00 -2°C° 0.1 mm 8 mps 680 mmHg 91%
    05:00 -2°C° 0 mm 7 mps 680 mmHg 92%
    06:00 -2°C° 0 mm 7 mps 681 mmHg 93%
    07:00 -3°C° 0 mm 6 mps 681 mmHg 93%
    08:00 -2°C° 0 mm 6 mps 681 mmHg 90%
    09:00 -1°C° 0 mm 5 mps 681 mmHg 86%
    10:00 0°C° 0 mm 5 mps 681 mmHg 82%
    11:00 0°C° 0 mm 5 mps 681 mmHg 75%
    12:00 +1°C° 0 mm 5 mps 681 mmHg 69%
    13:00 +2°C° 0 mm 5 mps 681 mmHg 62%
    14:00 +3°C° 0 mm 5 mps 680 mmHg 57%
    15:00 +3°C° 0 mm 5 mps 680 mmHg 52%
    16:00 +3°C° 0 mm 5 mps 679 mmHg 47%
    17:00 +3°C° 0 mm 4 mps 679 mmHg 51%
    18:00 +2°C° 0 mm 3 mps 679 mmHg 55%
    19:00 +1°C° 0 mm 3 mps 678 mmHg 59%
    20:00 +2°C° 0 mm 2 mps 678 mmHg 62%
    21:00 +1°C° 0 mm 2 mps 678 mmHg 64%
    22:00 +1°C° 0 mm 2 mps 678 mmHg 66%
    23:00 +1°C° 0 mm 2 mps 678 mmHg 67%

    28 January, Monday

    Time Temperature Precipitation Wind Pressure Humidity
    00:00 +2°C° 0 mm 2 mps 678 mmHg 67%
    01:00 +1°C° 0 mm 3 mps 678 mmHg 67%
    02:00 +1°C° 0.1 mm 3 mps 677 mmHg 67%
    03:00 +1°C° 0.1 mm 3 mps 677 mmHg 68%
    04:00 +1°C° 0.1 mm 3 mps 676 mmHg 69%
    05:00 +2°C° 0.3 mm 2 mps 676 mmHg 73%
    06:00 +2°C° 0.3 mm 2 mps 676 mmHg 76%
    07:00 +2°C° 0.3 mm 2 mps 675 mmHg 80%
    08:00 +3°C° 0.7 mm 2 mps 676 mmHg 83%
    09:00 +3°C° 0.7 mm 2 mps 676 mmHg 87%
    10:00 +3°C° 0.7 mm 2 mps 676 mmHg 90%
    11:00 +3°C° 1.6 mm 2 mps 676 mmHg 92%
    12:00 +2°C° 1.6 mm 3 mps 676 mmHg 95%
    13:00 +2°C° 1.6 mm 3 mps 676 mmHg 97%
    14:00 +1°C° 1.5 mm 4 mps 676 mmHg 97%
    15:00 0°C° 1.5 mm 5 mps 676 mmHg 97%
    16:00 -1°C° 1.5 mm 6 mps 676 mmHg 97%
    17:00 -1°C° 0.5 mm 6 mps 676 mmHg 95%
    18:00 -2°C° 0.5 mm 6 mps 676 mmHg 93%
    19:00 -2°C° 0.5 mm 6 mps 677 mmHg 92%
    20:00 -2°C° 0.1 mm 6 mps 677 mmHg 92%
    21:00 -2°C° 0.1 mm 6 mps 678 mmHg 93%
    22:00 -3°C° 0.1 mm 6 mps 678 mmHg 94%
    23:00 -2°C° 0 mm 5 mps 678 mmHg 94%
    Show more